Location: Drocourt
(49.0571°N, 1.7669°E)
Time: 15:50:49
(UTC+00:00)

Vanguard 1 Rocket - Pass Details

Date: 17 April 2024
Orbit: 651 x 4220 km, 34.3° (Epoch: 19 May)

Event Time Altitude Azimuth Distance (km) Brightness Sun altitude
Rises 22:26:19 0° 256° (WSW) 4,068 10.9 -27.1°
Reaches altitude 10° 22:28:54 10° 246° (WSW) 3,428 10.3 -27.3°
Enters shadow 22:34:49 31° 203° (SSW) 2,838 9.5 -27.7°
